Lamar, CO

7:56 AM MDT on April 30, 2017 (GMT -0600)
Lamar Municipal

Weather History for KLAA - January, 2013

Change the Weather History Date:

Tuesday, January 22, 2013

  Actual Average Record
Temperature  
Mean Temperature 39 °F 30 °F  
Max Temperature 61 °F 45 °F 73 °F (1967)
Min Temperature 17 °F 14 °F -15 °F (1966)
Degree Days  
Heating Degree Days 26 36  
Month to date heating degree days 806 804  
Since 1 July heating degree days 2956 3117  
Cooling Degree Days 0 0  
Month to date cooling degree days 0 0  
Year to date cooling degree days 0 0  
Moisture  
Dew Point 8 °F    
Average Humidity 41    
Maximum Humidity 73    
Minimum Humidity 9    
Precipitation  
Precipitation 0.00 in 0.01 in 0.13 in (1957)
Month to date precipitation 0.01  
Year to date precipitation 0.01  
Sea Level Pressure  
Sea Level Pressure 30.13 in    
Wind  
Wind Speed 6 mph (WSW)    
Max Wind Speed 15 mph    
Max Gust Speed 18 mph    
Visibility 10 miles    
Events      
T = Trace of Precipitation, MM = Missing Value Source: NWS Daily Summary

Daily Weather History Graph

Daily Weather History Graph

Search for Another Location

Airport or City:

Trip Planner

Search our weather history database for the weather conditions in past years. The results will help you decide how hot, cold, wet, or windy it might be!

Date:

Astronomy

Jan. 22, 2013 Rise Set
Actual Time 7:02 AM MST 5:02 PM MST
Civil Twilight 6:33 AM MST 5:31 PM MST
Nautical Twilight 6:01 AM MST 6:03 PM MST
Astronomical Twilight 5:30 AM MST 6:34 PM MST
Moon 1:28 PM MST (1/22) 3:25 AM MST (1/22)
Length of Visible Light 10h 57m
Length of Day
10h 00m
Waxing Gibbous, 83% of the Moon is Illuminated
Jan 22
Waxing Gibbous
Jan 26
Full
Feb 3
Last Quarter
Feb 10
New
Feb 17
First Quarter

Hourly Weather History & Observations

Time (MST) Temp. Windchill Dew Point Humidity Pressure Visibility Wind Dir Wind Speed Gust Speed Precip Events Conditions
12:53 AM 25.0 °F 14.8 °F 12.0 °F 58% 30.11 in 10.0 mi WSW 10.4 mph - N/A   Clear
1:53 AM 23.0 °F 11.7 °F 10.9 °F 60% 30.11 in 10.0 mi WSW 11.5 mph - N/A   Clear
2:53 AM 21.9 °F 15.7 °F 10.0 °F 60% 30.10 in 10.0 mi WSW 4.6 mph - N/A   Clear
3:53 AM 21.0 °F 10.6 °F 10.0 °F 63% 30.08 in 10.0 mi WSW 9.2 mph - N/A   Clear
5:53 AM 21.9 °F 12.5 °F 8.1 °F 55% 30.12 in 10.0 mi West 8.1 mph - N/A   Clear
6:53 AM 19.0 °F 12.3 °F 7.0 °F 59% 30.16 in 10.0 mi WSW 4.6 mph - N/A   Clear
7:53 AM 24.1 °F 19.7 °F 9.0 °F 53% 30.16 in 10.0 mi WSW 3.5 mph - N/A   Clear
8:53 AM 30.9 °F - 9.0 °F 40% 30.18 in 10.0 mi Calm Calm - N/A   Clear
9:53 AM 37.9 °F - 12.0 °F 35% 30.17 in 10.0 mi Calm Calm - N/A   Clear
10:53 AM 48.9 °F - 6.1 °F 18% 30.12 in 10.0 mi WNW 3.5 mph - N/A   Clear
11:53 AM 55.0 °F - 1.0 °F 11% 30.09 in 10.0 mi WNW 8.1 mph - N/A   Clear
12:53 PM 57.0 °F - 1.9 °F 11% 30.06 in 10.0 mi Calm Calm - N/A   Clear
1:53 PM 59.0 °F - 1.0 °F 10% 30.05 in 10.0 mi Calm Calm - N/A   Clear
2:53 PM 61.0 °F - 1.9 °F 9% 30.05 in 10.0 mi NE 4.6 mph - N/A   Clear
3:53 PM 60.1 °F - 3.9 °F 11% 30.06 in 10.0 mi East 6.9 mph - N/A   Clear
4:53 PM 48.9 °F - 6.1 °F 18% 30.08 in 10.0 mi East 8.1 mph - N/A   Clear
5:53 PM 44.1 °F 37.4 °F 9.0 °F 24% 30.12 in 10.0 mi SE 13.8 mph - N/A   Clear
6:53 PM 43.0 °F 36.0 °F 14.0 °F 31% 30.14 in 10.0 mi SSE 13.8 mph - N/A   Clear
7:53 PM 36.0 °F - 14.0 °F 41% 30.17 in 10.0 mi Calm Calm - N/A   Clear
8:53 PM 30.9 °F 26.2 °F 14.0 °F 50% 30.20 in 10.0 mi NE 4.6 mph - N/A   Clear
9:53 PM 28.0 °F 22.8 °F 12.9 °F 53% 30.22 in 10.0 mi ENE 4.6 mph - N/A   Clear
10:53 PM 21.9 °F 17.2 °F 12.0 °F 66% 30.20 in 10.0 mi NE 3.5 mph - N/A   Clear
11:53 PM 18.0 °F - 9.0 °F 68% 30.17 in 10.0 mi Calm Calm - N/A   Clear